Location: Chuathbaluk
(61.5726°N, 159.2454°W)
Time: 22:33:53
(UTC+00:00)

Explorer 7 - Pass Details

Date: 10 December 2021
Orbit: 483 x 674 km, 50.3° (Epoch: 21 January)

Event Time Altitude Azimuth Distance (km) Brightness Sun altitude
Rises 18:31:45 0° 258° (WSW) 2,769 10.0 -7.0°
Reaches altitude 10° 18:35:24 10° 226° (SW) 1,818 9.4 -6.6°
Maximum altitude 18:36:53 12° 205° (SSW) 1,686 9.5 -6.5°
Drops below altitude 10° 18:38:21 10° 183° (S) 1,776 9.9 -6.3°
Sets 18:41:48 0° 151° (SSE) 2,618 11.8 -6.0°
